Back to catalog

NOAA 16 DEB

AliveSSO
NORAD 41199·DEBRIS·🇺🇸 United States

Launched Sep 21, 2000 from Vandenberg Space Force Base

Loading…

Next Passes (next 24 hours)

TLE

FreshSource: Space-Track

Epoch: Sep 12, 2026, 06:11 UTC

1 41199U 00055DC  26255.25800701  .00002080  00000-0  10966-2 0  9991
2 41199  98.7407 268.6767 0060654  81.2330 279.5706 14.14055397551478

Track NOAA 16 DEB in real time with AllMySat

Download on the App Store